Location: Ajisawe
(8.4333°N, 4.3833°E)
Time: 13:25:43
(UTC+00:00)

Courier 1B Rocket - Pass Details

Date: 02 May 2021
Orbit: 920 x 1202 km, 28.2° (Epoch: 07 May)

Event Time Altitude Azimuth Distance (km) Brightness Sun altitude
Rises 18:01:53 0° 316° (NW) 3,544 9.2 -3.1°
Reaches altitude 10° 18:05:24 10° 335° (NNW) 2,616 7.9 -3.9°
Maximum altitude 18:09:30 18° 16° (NNE) 2,140 6.8 -4.9°
Drops below altitude 10° 18:13:41 10° 57° (ENE) 2,693 6.9 -5.9°
Enters shadow 18:16:49 - 74° (ENE) 3,526 7.4 -6.6°
Sets 18:17:22 0° 76° (ENE) 3,691 - -6.8°
